Timestamp, Local Timestamp, ID, PM25, PM10, Co2, Temperature, Relative Humidity, Monitor ID, O3
2023-05-25T13:56:11Z,05/25/23 09:56,10535944,0.126,0.0,553,20.2,40.9,64,0.0
2023-05-25T13:57:11Z,05/25/23 09:57,10535948,0.153,0.0,534,20.2,40.2,64,0.0
2023-05-25T13:58:11Z,05/25/23 09:58,10535952,0.192,0.0,545,20.3,39.7,64,0.0
2023-05-25T13:59:11Z,05/25/23 09:59,10535956,0.185,0.001,535,20.3,39.3,64,0.0
2023-05-25T14:00:11Z,05/25/23 10:00,10535960,0.16799999999999998,0.0,539,20.3,39.0,64,0.0
2023-05-25T14:01:11Z,05/25/23 10:01,10535964,0.303,0.0,533,20.3,38.6,64,0.0
2023-05-25T14:02:11Z,05/25/23 10:02,10535968,0.149,0.001,541,20.4,38.4,64,0.0
2023-05-25T14:03:11Z,05/25/23 10:03,10535971,0.16799999999999998,0.0,548,20.4,38.1,64,0.0
2023-05-25T14:04:11Z,05/25/23 10:04,10535975,0.10500000000000001,0.0,543,20.4,37.8,64,0.0
2023-05-25T14:05:11Z,05/25/23 10:05,10535979,0.153,0.0,554,20.5,37.6,64,0.0
2023-05-25T14:06:11Z,05/25/23 10:06,10535982,0.16799999999999998,0.0,541,20.5,37.4,64,0.0
2023-05-25T14:07:11Z,05/25/23 10:07,10535986,0.10800000000000001,0.0,539,20.5,37.2,64,0.0
2023-05-25T14:08:11Z,05/25/23 10:08,10535990,0.21800000000000003,0.001,533,20.5,37.1,64,0.0
2023-05-25T14:09:11Z,05/25/23 10:09,10535994,0.21000000000000002,0.0,533,20.5,37.0,64,0.0
2023-05-25T14:10:11Z,05/25/23 10:10,10535998,0.10800000000000001,0.0,533,20.5,36.8,64,0.0
2023-05-25T14:11:11Z,05/25/23 10:11,10536002,0.15,0.0,548,20.5,36.8,64,0.0
2023-05-25T14:12:11Z,05/25/23 10:12,10536006,0.093,0.0,543,20.5,36.6,64,0.0
2023-05-25T14:13:11Z,05/25/23 10:13,10536009,0.132,0.0,545,20.5,36.6,64,0.0
2023-05-25T14:14:11Z,05/25/23 10:14,10536012,0.155,0.001,527,20.5,36.5,64,0.0
2023-05-25T14:15:11Z,05/25/23 10:15,10536015,0.063,0.0,521,20.6,36.4,64,0.0
2023-05-25T14:16:11Z,05/25/23 10:16,10536018,0.181,0.002,539,20.6,36.3,64,0.0
2023-05-25T14:17:11Z,05/25/23 10:17,10536021,0.129,0.0,533,20.6,36.2,64,0.0
2023-05-25T14:18:11Z,05/25/23 10:18,10536024,0.123,0.0,537,20.6,36.2,64,0.0
2023-05-25T14:19:11Z,05/25/23 10:19,10536027,0.072,0.0,536,20.6,36.2,64,0.0
2023-05-25T14:20:11Z,05/25/23 10:20,10536030,0.185,0.001,528,20.6,36.0,64,0.0
2023-05-25T14:21:11Z,05/25/23 10:21,10536033,0.123,0.0,532,20.6,36.0,64,0.0
2023-05-25T14:22:11Z,05/25/23 10:22,10536036,0.135,0.0,534,20.6,36.0,64,0.0
2023-05-25T14:23:11Z,05/25/23 10:23,10536039,0.09,0.0,536,20.6,35.9,64,0.0
2023-05-25T14:24:11Z,05/25/23 10:24,10536042,0.15,0.0,542,20.6,35.8,64,0.0
2023-05-25T14:25:11Z,05/25/23 10:25,10536045,0.221,0.001,536,20.6,35.8,64,0.0
2023-05-25T14:26:11Z,05/25/23 10:26,10536048,0.144,0.0,544,20.6,35.8,64,0.0
2023-05-25T14:27:11Z,05/25/23 10:27,10536051,0.153,0.0,518,20.6,35.7,64,0.0
2023-05-25T14:28:11Z,05/25/23 10:28,10536054,0.189,0.0,549,20.6,35.7,64,0.0
2023-05-25T14:29:11Z,05/25/23 10:29,10536057,0.159,0.0,540,20.6,35.7,64,0.0
2023-05-25T14:30:11Z,05/25/23 10:30,10536060,0.144,0.0,530,20.6,35.6,64,0.0
2023-05-25T14:31:11Z,05/25/23 10:31,10536063,0.15,0.0,544,20.7,35.6,64,0.0
2023-05-25T14:32:11Z,05/25/23 10:32,10536066,0.22200000000000003,0.0,532,20.7,35.5,64,0.0
2023-05-25T14:33:11Z,05/25/23 10:33,10536069,0.141,0.0,530,20.7,35.5,64,0.0
2023-05-25T14:34:11Z,05/25/23 10:34,10536072,0.134,0.001,536,20.7,35.5,64,0.0
2023-05-25T14:35:11Z,05/25/23 10:35,10536075,0.183,0.0,553,20.7,35.5,64,0.0
2023-05-25T14:36:11Z,05/25/23 10:36,10536078,0.269,0.001,534,20.7,35.5,64,0.0
2023-05-25T14:37:11Z,05/25/23 10:37,10536081,0.16499999999999998,0.0,551,20.7,35.4,64,0.0
2023-05-25T14:38:11Z,05/25/23 10:38,10536084,0.155,0.001,571,20.7,35.4,64,0.0
2023-05-25T14:39:11Z,05/25/23 10:39,10536087,0.11699999999999999,0.0,546,20.7,35.4,64,0.0
2023-05-25T14:40:11Z,05/25/23 10:40,10536091,0.16499999999999998,0.0,553,20.7,35.4,64,0.0
2023-05-25T14:41:11Z,05/25/23 10:41,10536094,0.24,0.0,559,20.7,35.4,64,0.0
2023-05-25T14:42:11Z,05/25/23 10:42,10536098,0.311,0.001,542,20.8,35.3,64,0.0
2023-05-25T14:43:11Z,05/25/23 10:43,10536102,0.182,0.001,546,20.8,35.2,64,0.0
2023-05-25T14:44:11Z,05/25/23 10:44,10536106,0.174,0.0,561,20.8,35.2,64,0.0
2023-05-25T14:45:11Z,05/25/23 10:45,10536108,0.197,0.001,553,20.8,35.2,64,0.0
2023-05-25T14:46:11Z,05/25/23 10:46,10536112,0.186,0.0,557,20.8,35.2,64,0.0
2023-05-25T14:47:11Z,05/25/23 10:47,10536116,0.152,0.001,569,20.8,35.2,64,0.0
2023-05-25T14:48:11Z,05/25/23 10:48,10536120,0.195,0.0,575,20.8,35.2,64,0.0
2023-05-25T14:49:11Z,05/25/23 10:49,10536124,0.205,0.002,569,20.8,35.2,64,0.0
2023-05-25T14:50:11Z,05/25/23 10:50,10536128,0.225,0.0,579,20.8,35.2,64,0.0
2023-05-25T14:51:11Z,05/25/23 10:51,10536132,0.219,0.0,569,20.8,35.2,64,0.0
2023-05-25T14:52:11Z,05/25/23 10:52,10536135,0.261,0.0,586,20.9,35.2,64,0.0
2023-05-25T14:53:11Z,05/25/23 10:53,10536138,0.207,0.0,580,20.9,35.2,64,0.0
2023-05-25T14:54:11Z,05/25/23 10:54,10536141,0.26,0.001,591,20.9,35.2,64,0.0
2023-05-25T14:55:11Z,05/25/23 10:55,10536145,0.252,0.0,599,20.9,35.2,64,0.0
2023-05-25T14:56:11Z,05/25/23 10:56,10536149,0.20099999999999998,0.0,597,20.9,35.2,64,0.0
2023-05-25T14:57:11Z,05/25/23 10:57,10536153,0.21200000000000002,0.001,587,20.9,35.2,64,0.0
2023-05-25T14:58:11Z,05/25/23 10:58,10536157,0.162,0.0,578,20.9,35.2,64,0.0
2023-05-25T14:59:11Z,05/25/23 10:59,10536161,0.20099999999999998,0.0,587,20.9,35.2,64,0.0
2023-05-25T15:00:11Z,05/25/23 11:00,10536165,0.162,0.0,593,20.9,35.2,64,0.0
2023-05-25T15:01:11Z,05/25/23 11:01,10536169,0.23399999999999999,0.0,585,20.9,35.1,64,0.0
2023-05-25T15:02:11Z,05/25/23 11:02,10536173,0.20400000000000001,0.0,601,21.0,35.1,64,0.0
2023-05-25T15:03:11Z,05/25/23 11:03,10536177,0.26,0.001,601,21.0,35.1,64,0.0
2023-05-25T15:04:11Z,05/25/23 11:04,10536181,0.16999999999999998,0.001,617,21.0,35.1,64,0.0
2023-05-25T15:05:11Z,05/25/23 11:05,10536185,0.141,0.0,610,21.0,35.1,64,0.0
2023-05-25T15:06:11Z,05/25/23 11:06,10536189,0.20400000000000001,0.0,593,21.0,35.1,64,0.0
2023-05-25T15:07:11Z,05/25/23 11:07,10536193,0.144,0.0,625,21.0,35.1,64,0.0
2023-05-25T15:08:11Z,05/25/23 11:08,10536197,0.22599999999999998,0.002,619,21.0,35.1,64,0.0
2023-05-25T15:09:11Z,05/25/23 11:09,10536201,0.179,0.001,623,21.0,35.1,64,0.0
2023-05-25T15:10:11Z,05/25/23 11:10,10536205,0.134,0.001,610,21.0,35.1,64,0.0
2023-05-25T15:11:11Z,05/25/23 11:11,10536208,0.12,0.0,606,21.1,35.1,64,0.0
2023-05-25T15:12:11Z,05/25/23 11:12,10536211,0.16999999999999998,0.001,595,21.0,35.0,64,0.0
2023-05-25T15:13:11Z,05/25/23 11:13,10536214,0.198,0.0,625,21.1,35.0,64,0.0
2023-05-25T15:14:11Z,05/25/23 11:14,10536217,0.198,0.0,612,21.1,34.9,64,0.0
2023-05-25T15:15:11Z,05/25/23 11:15,10536220,0.231,0.0,621,21.1,34.9,64,0.0
2023-05-25T15:16:11Z,05/25/23 11:16,10536223,0.11699999999999999,0.0,597,21.1,35.0,64,0.0
2023-05-25T15:17:11Z,05/25/23 11:17,10536226,0.156,0.0,610,21.1,34.9,64,0.0
2023-05-25T15:18:11Z,05/25/23 11:18,10536229,0.21000000000000002,0.0,633,21.1,35.0,64,0.0
2023-05-25T15:19:11Z,05/25/23 11:19,10536232,0.149,0.001,650,21.1,35.1,64,0.0
2023-05-25T15:20:11Z,05/25/23 11:20,10536235,0.192,0.0,648,21.1,35.1,64,0.0
2023-05-25T15:21:11Z,05/25/23 11:21,10536238,0.182,0.001,639,21.1,35.0,64,0.0
2023-05-25T15:22:11Z,05/25/23 11:22,10536241,0.155,0.001,635,21.1,35.0,64,0.0
2023-05-25T15:23:11Z,05/25/23 11:23,10536244,0.179,0.001,650,21.1,35.0,64,0.0
2023-05-25T15:24:11Z,05/25/23 11:24,10536247,0.24900000000000003,0.0,644,21.1,35.0,64,0.0
2023-05-25T15:25:11Z,05/25/23 11:25,10536250,0.183,0.0,631,21.1,35.0,64,0.0
2023-05-25T15:26:11Z,05/25/23 11:26,10536253,0.177,0.0,639,21.1,34.9,64,0.0
2023-05-25T15:27:11Z,05/25/23 11:27,10536256,0.20600000000000002,0.001,631,21.1,34.8,64,0.0
2023-05-25T15:28:11Z,05/25/23 11:28,10536259,0.183,0.0,639,21.1,34.8,64,0.0
2023-05-25T15:29:11Z,05/25/23 11:29,10536262,0.17099999999999999,0.0,626,21.1,34.8,64,0.0
2023-05-25T15:30:11Z,05/25/23 11:30,10536265,0.142,0.002,633,21.1,34.8,64,0.0
2023-05-25T15:31:11Z,05/25/23 11:31,10536268,0.20600000000000002,0.001,653,21.1,34.8,64,0.0
2023-05-25T15:32:11Z,05/25/23 11:32,10536272,0.192,0.0,633,21.1,34.8,64,0.0
2023-05-25T15:33:11Z,05/25/23 11:33,10536275,0.13799999999999998,0.0,650,21.1,34.8,64,0.0
2023-05-25T15:34:11Z,05/25/23 11:34,10536278,0.215,0.001,639,21.1,34.9,64,0.0
2023-05-25T15:35:11Z,05/25/23 11:35,10536281,0.255,0.0,644,21.1,34.9,64,0.0
2023-05-25T15:36:11Z,05/25/23 11:36,10536284,0.242,0.001,628,21.2,34.9,64,0.0
2023-05-25T15:37:11Z,05/25/23 11:37,10536287,0.2,0.001,633,21.2,34.9,64,0.0
2023-05-25T15:38:11Z,05/25/23 11:38,10536290,0.20099999999999998,0.0,637,21.2,34.9,64,0.0
2023-05-25T15:39:11Z,05/25/23 11:39,10536293,0.195,0.0,628,21.2,34.9,64,0.0
2023-05-25T15:40:11Z,05/25/23 11:40,10536296,0.176,0.001,653,21.2,34.9,64,0.0
2023-05-25T15:41:11Z,05/25/23 11:41,10536299,0.177,0.0,649,21.2,34.9,64,0.0
2023-05-25T15:42:11Z,05/25/23 11:42,10536302,0.2,0.001,631,21.2,34.8,64,0.0
2023-05-25T15:43:11Z,05/25/23 11:43,10536306,0.227,0.001,628,21.2,34.8,64,0.0
2023-05-25T15:44:11Z,05/25/23 11:44,10536310,0.18,0.0,633,21.2,34.8,64,0.0
2023-05-25T15:45:11Z,05/25/23 11:45,10536314,0.198,0.0,628,21.2,34.8,64,0.0
2023-05-25T15:46:11Z,05/25/23 11:46,10536318,0.152,0.001,626,21.2,34.8,64,0.0
2023-05-25T15:47:11Z,05/25/23 11:47,10536322,0.16699999999999998,0.001,609,21.2,34.8,64,0.0
2023-05-25T15:48:11Z,05/25/23 11:48,10536326,0.19,0.002,600,21.3,34.8,64,0.0
2023-05-25T15:49:11Z,05/25/23 11:49,10536330,0.16999999999999998,0.001,605,21.3,34.8,64,0.0
2023-05-25T15:50:11Z,05/25/23 11:50,10536334,0.177,0.0,598,21.3,34.8,64,0.0
2023-05-25T15:51:11Z,05/25/23 11:51,10536338,0.10500000000000001,0.0,579,21.3,34.8,64,0.0
2023-05-25T15:52:11Z,05/25/23 11:52,10536342,0.21600000000000003,0.0,588,21.3,34.7,64,0.0
2023-05-25T15:53:11Z,05/25/23 11:53,10536346,0.207,0.0,592,21.3,34.7,64,0.0
2023-05-25T15:54:11Z,05/25/23 11:54,10536350,0.21000000000000002,0.0,586,21.3,34.7,64,0.0
2023-05-25T15:55:11Z,05/25/23 11:55,10536353,0.22200000000000003,0.0,559,21.3,34.7,64,0.0
2023-05-25T15:56:11Z,05/25/23 11:56,10536358,0.194,0.001,584,21.3,34.7,64,0.0
2023-05-25T15:57:11Z,05/25/23 11:57,10536361,0.197,0.001,579,21.3,34.7,64,0.0
2023-05-25T15:58:11Z,05/25/23 11:58,10536365,0.20600000000000002,0.001,573,21.3,34.7,64,0.0
2023-05-25T15:59:11Z,05/25/23 11:59,10536369,0.144,0.0,563,21.3,34.7,64,0.0
2023-05-25T16:00:11Z,05/25/23 12:00,10536373,0.24500000000000002,0.001,555,21.3,34.7,64,0.0
2023-05-25T16:01:11Z,05/25/23 12:01,10536377,0.20299999999999999,0.001,561,21.3,34.7,64,0.0
2023-05-25T16:02:11Z,05/25/23 12:02,10536381,0.191,0.001,563,21.3,34.7,64,0.0
2023-05-25T16:03:11Z,05/25/23 12:03,10536385,0.24300000000000002,0.0,551,21.3,34.7,64,0.0
2023-05-25T16:04:11Z,05/25/23 12:04,10536389,0.161,0.001,542,21.3,34.7,64,0.0
2023-05-25T16:05:11Z,05/25/23 12:05,10536393,0.155,0.001,544,21.3,34.8,64,0.0
2023-05-25T16:06:11Z,05/25/23 12:06,10536397,0.20099999999999998,0.0,553,21.3,34.7,64,0.0
2023-05-25T16:07:11Z,05/25/23 12:07,10536401,0.205,0.002,542,21.3,34.7,64,0.0
2023-05-25T16:08:11Z,05/25/23 12:08,10536405,0.194,0.001,559,21.3,34.7,64,0.0
2023-05-25T16:09:11Z,05/25/23 12:09,10536409,0.155,0.001,546,21.3,34.7,64,0.0
2023-05-25T16:10:11Z,05/25/23 12:10,10536413,0.27599999999999997,0.0,536,21.3,34.7,64,0.0
2023-05-25T16:11:11Z,05/25/23 12:11,10536417,0.141,0.0,532,21.3,34.6,64,0.0
2023-05-25T16:12:11Z,05/25/23 12:12,10536421,0.29700000000000004,0.0,528,21.3,34.6,64,0.0
2023-05-25T16:13:11Z,05/25/23 12:13,10536425,0.189,0.0,528,21.3,34.5,64,0.0
2023-05-25T16:14:11Z,05/25/23 12:14,10536429,0.16499999999999998,0.0,528,21.4,34.5,64,0.0
2023-05-25T16:15:11Z,05/25/23 12:15,10536433,0.179,0.001,524,21.3,34.5,64,0.0
2023-05-25T16:16:11Z,05/25/23 12:16,10536437,0.22799999999999998,0.0,536,21.3,34.5,64,0.0
2023-05-25T16:17:11Z,05/25/23 12:17,10536441,0.161,0.001,538,21.4,34.5,64,0.0
2023-05-25T16:18:11Z,05/25/23 12:18,10536445,0.233,0.001,557,21.4,34.5,64,0.0
2023-05-25T16:19:11Z,05/25/23 12:19,10536449,0.24900000000000003,0.0,538,21.4,34.6,64,0.0
2023-05-25T16:20:11Z,05/25/23 12:20,10536453,0.242,0.001,544,21.4,34.6,64,0.0
2023-05-25T16:21:11Z,05/25/23 12:21,10536457,0.359,0.001,538,21.4,34.6,64,0.0
2023-05-25T16:22:11Z,05/25/23 12:22,10536461,0.195,0.0,559,21.4,34.6,64,0.0
2023-05-25T16:23:11Z,05/25/23 12:23,10536464,0.182,0.001,557,21.4,34.6,64,0.0
2023-05-25T16:24:11Z,05/25/23 12:24,10536467,0.22999999999999998,0.001,557,21.4,34.6,64,0.0
2023-05-25T16:25:11Z,05/25/23 12:25,10536470,0.179,0.001,540,21.4,34.6,64,0.0
2023-05-25T16:26:11Z,05/25/23 12:26,10536473,0.16799999999999998,0.003,553,21.4,34.6,64,0.0
2023-05-25T16:27:11Z,05/25/23 12:27,10536476,0.225,0.0,557,21.4,34.6,64,0.0
2023-05-25T16:28:11Z,05/25/23 12:28,10536479,0.25,0.002,547,21.4,34.6,64,0.0
2023-05-25T16:29:11Z,05/25/23 12:29,10536482,0.269,0.001,555,21.4,34.6,64,0.0
2023-05-25T16:30:11Z,05/25/23 12:30,10536485,0.21400000000000002,0.002,555,21.4,34.5,64,0.0
2023-05-25T16:31:11Z,05/25/23 12:31,10536488,0.192,0.0,551,21.4,34.5,64,0.0
2023-05-25T16:32:11Z,05/25/23 12:32,10536491,0.23399999999999999,0.0,544,21.4,34.5,64,0.0
2023-05-25T16:33:11Z,05/25/23 12:33,10536494,0.192,0.0,561,21.4,34.5,64,0.0
2023-05-25T16:34:11Z,05/25/23 12:34,10536497,0.21600000000000003,0.0,553,21.4,34.5,64,0.0
2023-05-25T16:35:11Z,05/25/23 12:35,10536500,0.17099999999999999,0.0,551,21.4,34.6,64,0.0
2023-05-25T16:36:11Z,05/25/23 12:36,10536503,0.17099999999999999,0.0,547,21.4,34.5,64,0.0
2023-05-25T16:37:11Z,05/25/23 12:37,10536507,0.22400000000000003,0.001,570,21.4,34.5,64,0.0
2023-05-25T16:38:11Z,05/25/23 12:38,10536511,0.144,0.0,540,21.4,34.5,64,0.0
2023-05-25T16:39:11Z,05/25/23 12:39,10536514,0.319,0.002,563,21.4,34.6,64,0.0
2023-05-25T16:40:11Z,05/25/23 12:40,10536518,0.221,0.001,544,21.4,34.6,64,0.0
2023-05-25T16:41:11Z,05/25/23 12:41,10536522,0.207,0.0,534,21.4,34.6,64,0.0
2023-05-25T16:42:11Z,05/25/23 12:42,10536526,0.21800000000000003,0.001,553,21.4,34.7,64,0.0
2023-05-25T16:43:11Z,05/25/23 12:43,10536530,0.24900000000000003,0.0,532,21.4,34.6,64,0.0
2023-05-25T16:44:11Z,05/25/23 12:44,10536533,0.21600000000000003,0.0,547,21.4,34.7,64,0.0
2023-05-25T16:45:11Z,05/25/23 12:45,10536536,0.17099999999999999,0.0,526,21.4,34.7,64,0.0
2023-05-25T16:46:11Z,05/25/23 12:46,10536539,0.273,0.0,512,21.4,34.7,64,0.0
2023-05-25T16:47:11Z,05/25/23 12:47,10536542,0.311,0.001,547,21.4,34.7,64,0.0
2023-05-25T16:48:11Z,05/25/23 12:48,10536545,0.3,0.0,536,21.4,34.9,64,0.0
2023-05-25T16:49:11Z,05/25/23 12:49,10536548,0.20600000000000002,0.001,557,21.4,34.9,64,0.0
2023-05-25T16:50:11Z,05/25/23 12:50,10536552,0.242,0.001,524,21.4,34.9,64,0.0
2023-05-25T16:51:11Z,05/25/23 12:51,10536556,0.329,0.001,524,21.4,35.0,64,0.0
2023-05-25T16:52:11Z,05/25/23 12:52,10536560,0.21800000000000003,0.001,542,21.4,35.0,64,0.0
2023-05-25T16:53:11Z,05/25/23 12:53,10536564,0.296,0.004,526,21.4,35.0,64,0.0
2023-05-25T16:54:11Z,05/25/23 12:54,10536568,0.229,0.002,524,21.4,35.0,64,0.0
2023-05-25T16:55:11Z,05/25/23 12:55,10536572,0.246,0.0,501,21.4,35.0,64,0.0
2023-05-25T16:56:11Z,05/25/23 12:56,10536575,0.27599999999999997,0.0,512,21.4,34.9,64,0.0
2023-05-25T16:57:11Z,05/25/23 12:57,10536578,0.184,0.002,538,21.4,34.9,64,0.0
2023-05-25T16:58:11Z,05/25/23 12:58,10536581,0.257,0.001,504,21.4,34.9,64,0.0
2023-05-25T16:59:11Z,05/25/23 12:59,10536584,0.377,0.001,489,21.4,34.9,64,0.0
2023-05-25T17:00:11Z,05/25/23 13:00,10536587,0.24500000000000002,0.001,501,21.4,34.9,64,0.0
2023-05-25T17:01:11Z,05/25/23 13:01,10536591,0.17099999999999999,0.0,514,21.4,34.9,64,0.0
2023-05-25T17:02:11Z,05/25/23 13:02,10536595,0.33799999999999997,0.001,489,21.4,34.9,64,0.0
2023-05-25T17:03:11Z,05/25/23 13:03,10536598,0.17099999999999999,0.0,520,21.4,34.9,64,0.0
2023-05-25T17:04:11Z,05/25/23 13:04,10536602,0.177,0.0,503,21.4,34.9,64,0.0
2023-05-25T17:05:11Z,05/25/23 13:05,10536605,0.207,0.0,491,21.4,34.9,64,0.0
2023-05-25T17:06:11Z,05/25/23 13:06,10536609,0.141,0.0,493,21.4,34.9,64,0.0
2023-05-25T17:07:11Z,05/25/23 13:07,10536613,0.182,0.001,504,21.4,34.9,64,0.0
2023-05-25T17:08:11Z,05/25/23 13:08,10536617,0.143,0.001,506,21.4,34.9,64,0.0
2023-05-25T17:09:11Z,05/25/23 13:09,10536620,0.183,0.0,483,21.4,34.9,64,0.0
2023-05-25T17:10:11Z,05/25/23 13:10,10536624,0.197,0.001,493,21.4,34.9,64,0.0
2023-05-25T17:11:11Z,05/25/23 13:11,10536627,0.2,0.001,503,21.3,34.9,64,0.0
2023-05-25T17:12:11Z,05/25/23 13:12,10536630,0.246,0.0,506,21.3,34.9,64,0.0
2023-05-25T17:13:11Z,05/25/23 13:13,10536633,0.177,0.0,503,21.3,34.9,64,0.0
2023-05-25T17:14:11Z,05/25/23 13:14,10536636,0.198,0.0,497,21.3,34.9,64,0.0
2023-05-25T17:15:11Z,05/25/23 13:15,10536639,0.20099999999999998,0.0,518,21.3,35.0,64,0.0
2023-05-25T17:16:11Z,05/25/23 13:16,10536642,0.207,0.0,493,21.3,35.0,64,0.0
2023-05-25T17:17:11Z,05/25/23 13:17,10536645,0.23900000000000002,0.001,499,21.3,35.0,64,0.0
2023-05-25T17:18:11Z,05/25/23 13:18,10536648,0.195,0.0,518,21.4,34.9,64,0.0
2023-05-25T17:19:11Z,05/25/23 13:19,10536651,0.24300000000000002,0.0,506,21.4,34.9,64,0.0
2023-05-25T17:20:11Z,05/25/23 13:20,10536654,0.23700000000000002,0.0,497,21.4,34.9,64,0.0
2023-05-25T17:21:11Z,05/25/23 13:21,10536658,0.162,0.0,510,21.4,34.9,64,0.0
2023-05-25T17:22:11Z,05/25/23 13:22,10536662,0.318,0.0,520,21.4,34.9,64,0.0
2023-05-25T17:23:11Z,05/25/23 13:23,10536666,0.257,0.001,506,21.4,34.9,64,0.0
2023-05-25T17:24:11Z,05/25/23 13:24,10536670,0.17099999999999999,0.0,510,21.3,34.9,64,0.0
2023-05-25T17:25:11Z,05/25/23 13:25,10536674,0.21000000000000002,0.0,497,21.3,34.8,64,0.0
2023-05-25T17:26:11Z,05/25/23 13:26,10536678,0.258,0.0,491,21.3,34.8,64,0.0
2023-05-25T17:27:11Z,05/25/23 13:27,10536682,0.22999999999999998,0.001,508,21.3,34.8,64,0.0
2023-05-25T17:28:11Z,05/25/23 13:28,10536686,0.357,0.0,493,21.3,34.8,64,0.0
2023-05-25T17:29:11Z,05/25/23 13:29,10536690,0.21200000000000002,0.001,485,21.3,34.8,64,0.0
2023-05-25T17:30:11Z,05/25/23 13:30,10536694,0.261,0.0,495,21.3,34.8,64,0.0
2023-05-25T17:31:11Z,05/25/23 13:31,10536697,0.198,0.0,499,21.3,34.8,64,0.0
2023-05-25T17:32:11Z,05/25/23 13:32,10536701,0.20299999999999999,0.001,491,21.3,34.8,64,0.0
2023-05-25T17:33:11Z,05/25/23 13:33,10536705,0.2,0.001,503,21.3,34.8,64,0.0
2023-05-25T17:34:11Z,05/25/23 13:34,10536709,0.181,0.002,493,21.3,34.8,64,0.0
2023-05-25T17:35:11Z,05/25/23 13:35,10536713,0.198,0.0,497,21.3,34.9,64,0.0
2023-05-25T17:36:11Z,05/25/23 13:36,10536717,0.22400000000000003,0.001,493,21.3,34.9,64,0.0
2023-05-25T17:37:11Z,05/25/23 13:37,10536721,0.189,0.0,510,21.3,35.0,64,0.0
2023-05-25T17:38:11Z,05/25/23 13:38,10536725,0.246,0.0,497,21.3,35.0,64,0.0
2023-05-25T17:39:11Z,05/25/23 13:39,10536729,0.246,0.0,497,21.3,35.1,64,0.0
2023-05-25T17:40:11Z,05/25/23 13:40,10536733,0.147,0.0,485,21.3,35.1,64,0.0
2023-05-25T17:41:11Z,05/25/23 13:41,10536737,0.195,0.0,487,21.2,35.1,64,0.0
2023-05-25T17:42:11Z,05/25/23 13:42,10536741,0.179,0.001,483,21.2,35.1,64,0.0
2023-05-25T17:43:11Z,05/25/23 13:43,10536745,0.207,0.0,485,21.2,35.1,64,0.0
2023-05-25T17:44:11Z,05/25/23 13:44,10536749,0.189,0.0,497,21.2,35.1,64,0.0
2023-05-25T17:45:11Z,05/25/23 13:45,10536752,0.294,0.0,485,21.2,35.1,64,0.0
2023-05-25T17:46:11Z,05/25/23 13:46,10536755,0.20299999999999999,0.001,477,21.2,35.1,64,0.0
2023-05-25T17:47:11Z,05/25/23 13:47,10536758,0.269,0.001,477,21.2,35.2,64,0.0
2023-05-25T17:48:11Z,05/25/23 13:48,10536761,0.23700000000000002,0.0,475,21.3,35.2,64,0.0
2023-05-25T17:49:11Z,05/25/23 13:49,10536764,0.16799999999999998,0.0,493,21.3,35.2,64,0.0
2023-05-25T17:50:11Z,05/25/23 13:50,10536767,0.16799999999999998,0.0,477,21.3,35.3,64,0.0
2023-05-25T17:51:11Z,05/25/23 13:51,10536770,0.188,0.001,489,21.3,35.3,64,0.0
2023-05-25T17:52:11Z,05/25/23 13:52,10536773,0.21000000000000002,0.0,485,21.3,35.3,64,0.0
2023-05-25T17:53:11Z,05/25/23 13:53,10536776,0.195,0.0,483,21.3,35.3,64,0.0
2023-05-25T17:54:11Z,05/25/23 13:54,10536781,0.21200000000000002,0.001,477,21.3,35.3,64,0.0
2023-05-25T17:55:11Z,05/25/23 13:55,10536784,0.248,0.001,479,21.3,35.3,64,0.0
2023-05-25T17:56:11Z,05/25/23 13:56,10536788,0.23900000000000002,0.001,479,21.3,35.4,64,0.0
2023-05-25T17:57:11Z,05/25/23 13:57,10536793,0.264,0.0,467,21.3,35.4,64,0.0
2023-05-25T17:58:11Z,05/25/23 13:58,10536796,0.215,0.001,485,21.3,35.4,64,0.0
2023-05-25T17:59:11Z,05/25/23 13:59,10536800,0.24900000000000003,0.0,479,21.3,35.4,64,0.0
2023-05-25T18:00:11Z,05/25/23 14:00,10536804,0.13999999999999999,0.001,465,21.3,35.5,64,0.0
2023-05-25T18:01:11Z,05/25/23 14:01,10536808,0.263,0.001,497,21.3,35.5,64,0.0
2023-05-25T18:02:11Z,05/25/23 14:02,10536813,0.179,0.001,475,21.3,35.4,64,0.0
2023-05-25T18:03:11Z,05/25/23 14:03,10536817,0.161,0.001,477,21.4,35.4,64,0.0
2023-05-25T18:04:11Z,05/25/23 14:04,10536821,0.24700000000000003,0.002,485,21.4,35.4,64,0.0
2023-05-25T18:05:11Z,05/25/23 14:05,10536824,0.242,0.001,485,21.4,35.4,64,0.0
2023-05-25T18:06:11Z,05/25/23 14:06,10536829,0.264,0.0,493,21.3,35.4,64,0.0
2023-05-25T18:07:11Z,05/25/23 14:07,10536833,0.266,0.001,493,21.3,35.3,64,0.0
2023-05-25T18:08:11Z,05/25/23 14:08,10536837,0.159,0.0,479,21.3,35.3,64,0.0
2023-05-25T18:09:11Z,05/25/23 14:09,10536840,0.159,0.0,467,21.3,35.3,64,0.0
2023-05-25T18:10:11Z,05/25/23 14:10,10536845,0.219,0.0,475,21.3,35.3,64,0.0
2023-05-25T18:11:11Z,05/25/23 14:11,10536848,0.162,0.0,469,21.3,35.2,64,0.0
2023-05-25T18:12:11Z,05/25/23 14:12,10536851,0.22400000000000003,0.001,499,21.3,35.3,64,0.0
2023-05-25T18:13:11Z,05/25/23 14:13,10536855,0.22200000000000003,0.0,489,21.3,35.3,64,0.0
2023-05-25T18:14:11Z,05/25/23 14:14,10536859,0.21800000000000003,0.001,477,21.3,35.3,64,0.0
2023-05-25T18:15:11Z,05/25/23 14:15,10536863,0.198,0.0,477,21.3,35.3,64,0.0
2023-05-25T18:16:11Z,05/25/23 14:16,10536867,0.159,0.0,475,21.3,35.2,64,0.0
2023-05-25T18:17:11Z,05/25/23 14:17,10536871,0.174,0.0,483,21.3,35.2,64,0.0
2023-05-25T18:18:11Z,05/25/23 14:18,10536875,0.198,0.0,479,21.3,35.2,64,0.0
2023-05-25T18:19:11Z,05/25/23 14:19,10536878,0.20800000000000002,0.002,491,21.3,35.1,64,0.0
2023-05-25T18:20:11Z,05/25/23 14:20,10536881,0.179,0.001,497,21.3,35.1,64,0.0
2023-05-25T18:21:11Z,05/25/23 14:21,10536884,0.192,0.0,479,21.3,35.1,64,0.0
2023-05-25T18:22:11Z,05/25/23 14:22,10536888,0.273,0.0,493,21.3,35.1,64,0.0
2023-05-25T18:23:11Z,05/25/23 14:23,10536892,0.261,0.0,483,21.3,35.1,64,0.0
2023-05-25T18:24:11Z,05/25/23 14:24,10536896,0.308,0.001,489,21.3,35.1,64,0.0
2023-05-25T18:25:11Z,05/25/23 14:25,10536900,0.22799999999999998,0.0,479,21.3,35.1,64,0.0
2023-05-25T18:26:11Z,05/25/23 14:26,10536904,0.195,0.0,481,21.3,35.1,64,0.0
2023-05-25T18:27:11Z,05/25/23 14:27,10536908,0.23700000000000002,0.0,506,21.3,35.0,64,0.0
2023-05-25T18:28:11Z,05/25/23 14:28,10536912,0.246,0.0,489,21.3,35.1,64,0.0
2023-05-25T18:29:11Z,05/25/23 14:29,10536916,0.242,0.001,499,21.3,35.1,64,0.0
2023-05-25T18:30:10Z,05/25/23 14:30,10536920,0.23700000000000002,0.0,499,21.3,35.1,64,0.0
2023-05-25T18:31:11Z,05/25/23 14:31,10536924,0.227,0.001,483,21.3,35.1,64,0.0
2023-05-25T18:32:10Z,05/25/23 14:32,10536928,0.18,0.0,495,21.3,35.1,64,0.0
2023-05-25T18:33:10Z,05/25/23 14:33,10536931,0.26,0.001,481,21.3,35.0,64,0.0
2023-05-25T18:34:10Z,05/25/23 14:34,10536936,0.236,0.001,499,21.3,35.0,64,0.0
2023-05-25T18:35:10Z,05/25/23 14:35,10536940,0.2,0.001,499,21.3,35.0,64,0.0
2023-05-25T18:36:10Z,05/25/23 14:36,10536944,0.172,0.002,497,21.3,35.0,64,0.0
2023-05-25T18:37:10Z,05/25/23 14:37,10536948,0.258,0.0,506,21.3,35.0,64,0.0
2023-05-25T18:38:10Z,05/25/23 14:38,10536951,0.215,0.001,493,21.3,34.9,64,0.0
2023-05-25T18:39:10Z,05/25/23 14:39,10536955,0.20800000000000002,0.002,491,21.3,34.8,64,0.0
2023-05-25T18:40:10Z,05/25/23 14:40,10536959,0.261,0.0,510,21.3,34.8,64,0.0
2023-05-25T18:41:10Z,05/25/23 14:41,10536962,0.28500000000000003,0.0,514,21.3,34.8,64,0.0
2023-05-25T18:42:10Z,05/25/23 14:42,10536967,0.16799999999999998,0.003,493,21.3,34.8,64,0.0
2023-05-25T18:43:10Z,05/25/23 14:43,10536970,0.189,0.0,510,21.3,34.8,64,0.0
2023-05-25T18:44:10Z,05/25/23 14:44,10536973,0.23399999999999999,0.0,514,21.2,34.8,64,0.0
2023-05-25T18:45:10Z,05/25/23 14:45,10536978,0.288,0.0,512,21.2,34.8,64,0.0